Regional Weather Roundup
Issued by NWS

Home | Current Version | Previous Version | Text Only | Print | Product List | Glossary On
Versions: 1 2 3 4 5 6 7 8 9 10 11 12 13 14 15 16 17 18 19 20 21 22 23 24 25 26 27 28 29 30 31 32 33 34 35 36 37 38 39 40 41 42 43 44 45 46 47 48 49 50
000
ASUS43 KDMX 012107
RWRIA

WEATHER ROUNDUP FOR IOWA
NATIONAL WEATHER SERVICE DES MOINES IA
300 PM CST SUN MAR 01 2015

NOTE: "FAIR" INDICATES FEW OR NO CLOUDS BELOW 12,000 FEET WITH NO
SIGNIFICANT WEATHER AND/OR OBSTRUCTIONS TO VISIBILITY.

* - THESE STATIONS ARE NOT NWS STATIONS...THUS NOT UNDER NWS
QUALITY CONTROL.  THEY ALSO DO NOT REPORT WEATHER SUCH
AS PRECIPITATION OR FOG.

IAZ001>003-012>014-020>022-031>034-043>046-012200-
   NORTHWEST IOWA

CITY           SKY/WX    TMP DP  RH WIND       PRES   REMARKS
CARROLL *      SUNNY     30  16  55 NW14      30.33S WCI  20
CHEROKEE *     MOSUNNY   30  18  59 W12G18    30.32S WCI  21
DENISON *      SUNNY     30  16  55 NW9       30.32S WCI  22
LE MARS *      MOSUNNY   34  16  47 NW13G21   30.32S WCI  25
ORANGE CITY *  SUNNY     32  16  51 NW22      30.29S WCI  19
SHELDON *      PTSUNNY   32  14  47 NW22G28   30.27F WCI  19
SIOUX CITY     MOSUNNY   36  14  40 W13       30.33F WCI  27
SPENCER        CLOUDY    29  16  58 NW15      30.29F WCI  18
STORM LAKE *   PTSUNNY   28  18  64 W16       30.32R WCI  17
$$

IAZ055>058-069>071-079>083-090>094-012200-
   SOUTHWEST IOWA

CITY           SKY/WX    TMP DP  RH WIND       PRES   REMARKS
ATLANTIC *     SUNNY     34  18  51 NW12      30.34S WCI  25
AUDUBON *      SUNNY     32  18  55 NW7       30.34S WCI  26
CLARINDA *     SUNNY     37  19  48 NW8       30.37S WCI  31
COUNCIL BLFS * SUNNY     36  18  48 VRB7G14   30.33S WCI  30
CRESTON *      SUNNY     34  16  47 NW13      30.34R WCI  25
HARLAN  *      SUNNY     34  19  55 NW10      30.37F WCI  26
LAMONI         MOSUNNY   33  20  58 W7        30.34S WCI  27
RED OAK *      SUNNY     36  18  48 N6        30.36R WCI  31
SHENANDOAH *   SUNNY     37  18  44 N8        30.37S WCI  31
$$

IAZ047>049-059>061-072>074-084-012200-
   CENTRAL IOWA

CITY           SKY/WX    TMP DP  RH WIND       PRES   REMARKS
AMES           SUNNY     29  15  56 NW12      30.34R WCI  19
ANKENY *       SUNNY     30  18  59 W10       30.34S WCI  21
CHARITON *     MOSUNNY   34  19  55 NW8G14    30.33S WCI  27
DES MOINES     MOSUNNY   33  17  51 NW8       30.34S WCI  26
GRINNELL*      SUNNY     28  19  69 W13       30.32S WCI  18
KNOXVILLE *    MOSUNNY   32  19  59 NW9G15    30.32S WCI  24
MARSHALLTOWN   SUNNY     26  17  68 NW15      30.32S WCI  14
PELLA *        SUNNY     34  23  64 W8        30.35S WCI  27
PERRY *          N/A     32  19  59 NW10      30.34S WCI  24
$$

IAZ004>006-015-016-023>025-035-036-012200-
   NORTH CENTRAL IOWA

CITY           SKY/WX    TMP DP  RH WIND       PRES   REMARKS
ALGONA *       MOSUNNY   28  16  59 W20G28    30.31R WCI  15
CLARION *      MOSUNNY   27  18  69 W15       30.31S WCI  15
ESTHERVILLE    MOSUNNY   28  17  63 W22       30.28S WCI  14
FORT DODGE *   MOSUNNY   28  16  59 W9        30.33S WCI  20
MASON CITY     SUNNY     24  12  60 W16       30.30F WCI  11
FOREST CITY *    N/A     28  12  50 W17       30.29S HAZE    WCI  16
IOWA FALLS *     N/A     27  16  63 W15       30.32S WCI  15
$$

IAZ007>011-017>019-026>030-037>042-050>054-066-012200-
   NORTHEAST IOWA

CITY           SKY/WX    TMP DP  RH WIND       PRES   REMARKS
CEDAR RAPIDS   PTSUNNY   27  20  75 W16       30.31S WCI  15
CHARLES CITY * SUNNY     23  12  63 W13G20    30.30R WCI  11
CLINTON *      PTSUNNY   25  16  68 W15       30.34F WCI  12
DECORAH *      SUNNY     23   9  54 NW14G22   30.26R WCI  11
DUBUQUE        PTSUNNY   25  17  72 W14G24    30.26F WCI  13
MONTICELLO *   CLOUDY    27  19  74 W15G23    30.30S WCI  15
OELWEIN *      SUNNY     23  12  63 NW15      30.30R WCI  10
WATERLOO       SUNNY     24  14  65 NW12      30.31R WCI  13
$$

IAZ064-065-067-068-078-012200-
   EAST CENTRAL IOWA

CITY           SKY/WX    TMP DP  RH WIND       PRES   REMARKS
DAVENPORT      MOSUNNY   25  15  66 W14       30.33S WCI  13
IOWA CITY      MOSUNNY   27  18  69 W13       30.35S WCI  16
MT. PLEASANT * CLOUDY    28  18  64 W10       30.36S WCI  19
MUSCATINE *    MOSUNNY   28  18  64 W12       30.36S WCI  18
QUAD CITIES    MOSUNNY   28  16  60 W9        30.32F WCI  19
$$

IAZ062-063-075>077-085>089-095>099-012200-
   SOUTHEAST IOWA

CITY           SKY/WX    TMP DP  RH WIND       PRES   REMARKS
BURLINGTON     CLOUDY    26  18  71 SW6       30.35S WCI  19
FAIRFIELD *    MOSUNNY   28  18  64 W7        30.35S WCI  21
FORT MADISON * CLOUDY    27  19  74 W9        30.36S WCI  17
KEOKUK *       CLOUDY    28  19  69 W10       30.35F WCI  19
OSKALOOSA *      N/A     30  21  69 W9        30.34S WCI  22
CENTERVILLE *  MOSUNNY   30  21  69 W9        30.36S WCI  22
OTTUMWA        MOSUNNY   30  19  63 W8        30.34S WCI  22
WASHINGTON *   PTSUNNY   28  21  74 W9        30.35S WCI  20
$$

ABBREVIATIONS USED IN REMARKS
   TC - TEMPERATURES IN CELSIUS
  WCI - WIND CHILL INDEX
   HX - HEAT INDEX
  VSB - VISIBILITY
$$




USA.gov is the U.S. government's official web portal to all federal, state and local government web resources and services.